^^
Station Historical Data
Daily Summary for January 11, 2017 Units:  Metric    English   Both
« Previous Day
Next Day »
Daily Weekly Monthly Yearly Custom
  High: Low: Average:
Temperature: -17.8 °C -20.3 °C -18.6 °C
Dew Point: -17.8 °C -22.3 °C -19.6 °C
Humidity: Humidity% 73% 87%
Wind Speed: 0km/h 0km/h 8.2km/h
Wind Gust: 0km/h - -
Wind- - SSE
Pressure: 0 hPa 33602.7 hPa -
Precipitation: 0 mm    
Historical Graphs
 
 
Tabular Data for January 11, 2017
Time Temperature Dew Point Pressure Wind Wind Speed Wind Gust Humidity Rainfall Rate (Hourly) solar Conditions
-17.8 °C -17.8 °C 0 hPa Calm     Humidity% 0 mm SoftwareType W/m2 Conditions
00:04 -17.4 °C -18.2 °C 34235.8 hPa SSW 1 km/h 23.8 km/h 91% 0 mm WeatherDisplay:10.37 W/m2 FEW
00:09 -17.4 °C -18.2 °C 34235.8 hPa SSE 6 km/h 15 km/h 91% 0 mm WeatherDisplay:10.37 W/m2 FEW
00:14 -17.4 °C -18.2 °C 34246 hPa South 6.3 km/h 11.9 km/h 91% 0 mm WeatherDisplay:10.37 W/m2 FEW
00:19 -17.4 °C -18.2 °C 34246 hPa NNE 5.6 km/h 44.7 km/h 91% 0 mm WeatherDisplay:10.37 W/m2 FEW
00:24 -17.5 °C -18.2 °C 34235.8 hPa SSW 14.8 km/h 32.8 km/h 91% 0 mm WeatherDisplay:10.37 W/m2 FEW
00:29 -17.5 °C -18.2 °C 34235.8 hPa SSE 1.6 km/h 41.7 km/h 91% 0 mm WeatherDisplay:10.37 W/m2 FEW
00:34 -17.5 °C -18.2 °C 34235.8 hPa SE 3.7 km/h 20.8 km/h 91% 0 mm WeatherDisplay:10.37 W/m2 FEW
00:39 -17.5 °C -18.2 °C 34235.8 hPa East 8.5 km/h 38.8 km/h 91% 0 mm WeatherDisplay:10.37 W/m2 FEW
00:44 -17.5 °C -18.2 °C 34235.8 hPa East 1.6 km/h 9 km/h 91% 0 mm WeatherDisplay:10.37 W/m2 FEW
00:49 -17.5 °C -18.2 °C 34235.8 hPa North 11.1 km/h 32.8 km/h 91% 0 mm WeatherDisplay:10.37 W/m2 FEW
00:54 -17.5 °C -18.2 °C 34235.8 hPa WSW 4.7 km/h 11.9 km/h 91% 0 mm WeatherDisplay:10.37 W/m2 FEW
00:59 -17.5 °C -18.3 °C 34235.8 hPa NE 4.2 km/h 9 km/h 90% 0 mm WeatherDisplay:10.37 W/m2 FEW
01:04 -17.5 °C -18.3 °C 34222.3 hPa SW 6 km/h 20.9 km/h 90% 0 mm WeatherDisplay:10.37 W/m2 FEW
01:09 -17.5 °C -18.3 °C 34235.8 hPa NE 8.2 km/h 26.9 km/h 90% 0 mm WeatherDisplay:10.37 W/m2 FEW
01:14 -17.5 °C -18.3 °C 34222.3 hPa SW 9 km/h 20.9 km/h 90% 0 mm WeatherDisplay:10.37 W/m2 FEW
01:19 -17.5 °C -18.3 °C 34222.3 hPa South 5.6 km/h 15 km/h 90% 0 mm WeatherDisplay:10.37 W/m2 FEW
01:24 -17.6 °C -18.3 °C 34222.3 hPa NE 3.1 km/h 15 km/h 90% 0 mm WeatherDisplay:10.37 W/m2 FEW
01:29 -17.6 °C -18.3 °C 34222.3 hPa SW 8.9 km/h 15 km/h 90% 0 mm WeatherDisplay:10.37 W/m2 FEW
01:34 -17.6 °C -18.3 °C 34222.3 hPa Calm   2.6 km/h 90% 0 mm WeatherDisplay:10.37 W/m2 FEW
01:39 -17.6 °C -18.4 °C 34222.3 hPa NW 2.9 km/h 15 km/h 90% 0 mm WeatherDisplay:10.37 W/m2 FEW
01:44 -17.6 °C -18.3 °C 34212.1 hPa South 3.7 km/h 9 km/h 91% 0 mm WeatherDisplay:10.37 W/m2 FEW
01:49 -17.6 °C -18.3 °C 34212.1 hPa SSW 7.2 km/h 20.9 km/h 91% 0 mm WeatherDisplay:10.37 W/m2 FEW
01:54 -17.6 °C -18.3 °C 34222.3 hPa South 6 km/h 17.9 km/h 91% 0 mm WeatherDisplay:10.37 W/m2 FEW
01:59 -17.6 °C -18.3 °C 34212.1 hPa SSE 1.6 km/h 9 km/h 91% 0 mm WeatherDisplay:10.37 W/m2 FEW
02:04 -17.6 °C -18.3 °C 34212.1 hPa East 7.2 km/h 26.9 km/h 91% 0 mm WeatherDisplay:10.37 W/m2 FEW
02:09 -17.6 °C -18.4 °C 34212.1 hPa SW 4.7 km/h 17.9 km/h 90% 0 mm WeatherDisplay:10.37 W/m2 FEW
02:14 -17.6 °C -18.4 °C 34198.6 hPa SSW 6.9 km/h 11.9 km/h 90% 0 mm WeatherDisplay:10.37 W/m2 FEW
02:19 -17.6 °C -18.4 °C 34198.6 hPa SSE 2.9 km/h 11.9 km/h 90% 0 mm WeatherDisplay:10.37 W/m2 FEW
02:24 -17.6 °C -18.4 °C 34198.6 hPa SW 3.4 km/h 29.8 km/h 90% 0 mm WeatherDisplay:10.37 W/m2 FEW
02:29 -17.6 °C -18.4 °C 34198.6 hPa SSE 8.2 km/h 35.7 km/h 90% 0 mm WeatherDisplay:10.37 W/m2 FEW
02:34 -17.7 °C -18.4 °C 34198.6 hPa Calm   9 km/h 90% 0 mm WeatherDisplay:10.37 W/m2 FEW
02:39 -17.7 °C -18.4 °C 34198.6 hPa SSE 1.8 km/h 9 km/h 90% 0 mm WeatherDisplay:10.37 W/m2 FEW
02:44 -17.7 °C -18.5 °C 34198.6 hPa SSW 5 km/h 10.3 km/h 90% 0 mm WeatherDisplay:10.37 W/m2 FEW
02:49 -17.7 °C -18.5 °C 34198.6 hPa SSW 5 km/h 38.8 km/h 90% 0 mm WeatherDisplay:10.37 W/m2 FEW
02:54 -17.7 °C -18.4 °C 34188.4 hPa SSW 3.1 km/h 44.7 km/h 90% 0 mm WeatherDisplay:10.37 W/m2 FEW
02:59 -17.7 °C -18.4 °C 34188.4 hPa South 3.4 km/h 29.8 km/h 90% 0 mm WeatherDisplay:10.37 W/m2 FEW
03:04 -17.7 °C -18.4 °C 34188.4 hPa SE 8.9 km/h 17.9 km/h 90% 0 mm WeatherDisplay:10.37 W/m2 FEW
03:09 -17.7 °C -18.4 °C 34188.4 hPa ESE 11.1 km/h 11.1 km/h 90% 0 mm WeatherDisplay:10.37 W/m2 FEW
03:14 -17.7 °C -18.4 °C 34188.4 hPa SSW 3.9 km/h 7.7 km/h 90% 0 mm WeatherDisplay:10.37 W/m2 FEW
03:19 -17.7 °C -18.4 °C 34178.3 hPa South 6.9 km/h 9 km/h 90% 0 mm WeatherDisplay:10.37 W/m2 FEW
03:24 -17.7 °C -18.4 °C 34178.3 hPa SE 6.3 km/h 15 km/h 90% 0 mm WeatherDisplay:10.37 W/m2 FEW
03:29 -17.7 °C -18.4 °C 34178.3 hPa SSE 5.5 km/h 20.9 km/h 90% 0 mm WeatherDisplay:10.37 W/m2 FEW
03:34 -17.7 °C -18.4 °C 34178.3 hPa SSE 4.2 km/h 25.9 km/h 90% 0 mm WeatherDisplay:10.37 W/m2 FEW
03:39 -17.7 °C -18.4 °C 34178.3 hPa NNE 2.3 km/h 6 km/h 90% 0 mm WeatherDisplay:10.37 W/m2 FEW
03:44 -17.7 °C -18.4 °C 34178.3 hPa SSE 8 km/h 20.9 km/h 91% 0 mm WeatherDisplay:10.37 W/m2 FEW
03:49 -17.7 °C -18.4 °C 34164.7 hPa ESE 8.5 km/h 17.9 km/h 91% 0 mm WeatherDisplay:10.37 W/m2 FEW
03:54 -17.7 °C -18.4 °C 34164.7 hPa South 10.6 km/h 10.6 km/h 91% 0 mm WeatherDisplay:10.37 W/m2 FEW
03:59 -17.7 °C -18.4 °C 34164.7 hPa ESE 6.3 km/h 29.8 km/h 91% 0 mm WeatherDisplay:10.37 W/m2 FEW
04:04 -17.7 °C -18.4 °C 34154.6 hPa SE 14 km/h 29.8 km/h 91% 0 mm WeatherDisplay:10.37 W/m2 FEW
04:09 -17.7 °C -18.4 °C 34154.6 hPa SSW 7.2 km/h 20.9 km/h 91% 0 mm WeatherDisplay:10.37 W/m2 FEW
04:15 -17.7 °C -18.4 °C 34154.6 hPa South 2.6 km/h 20.8 km/h 91% 0 mm WeatherDisplay:10.37 W/m2 FEW
04:20 -17.7 °C -18.4 °C 34144.4 hPa NNE 10.1 km/h 23.8 km/h 91% 0 mm WeatherDisplay:10.37 W/m2 FEW
04:25 -17.7 °C -18.4 °C 34144.4 hPa SSE 11.6 km/h 29.8 km/h 91% 0 mm WeatherDisplay:10.37 W/m2 FEW
04:30 -17.7 °C -18.4 °C 34144.4 hPa South 6.4 km/h 18.2 km/h 91% 0 mm WeatherDisplay:10.37 W/m2 FEW
04:35 -17.7 °C -18.4 °C 34144.4 hPa South 10.9 km/h 44.7 km/h 91% 0 mm WeatherDisplay:10.37 W/m2 FEW
04:40 -17.7 °C -18.3 °C 34144.4 hPa ESE 11.1 km/h 23.8 km/h 92% 0 mm WeatherDisplay:10.37 W/m2 FEW
04:45 -17.7 °C -18.3 °C 34144.4 hPa SSW 8.2 km/h 29.8 km/h 92% 0 mm WeatherDisplay:10.37 W/m2 FEW
04:50 -17.7 °C -18.3 °C 34130.9 hPa South 8 km/h 20.9 km/h 92% 0 mm WeatherDisplay:10.37 W/m2 FEW
04:55 -17.7 °C -18.4 °C 34130.9 hPa SSW 10.9 km/h 18.2 km/h 91% 0 mm WeatherDisplay:10.37 W/m2 FEW
05:00 -17.7 °C -18.4 °C 34130.9 hPa SSW 3.4 km/h 26.9 km/h 92% 0 mm WeatherDisplay:10.37 W/m2 FEW
05:05 -17.8 °C -18.4 °C 34130.9 hPa North 10.9 km/h 20.9 km/h 92% 0 mm WeatherDisplay:10.37 W/m2 FEW
05:10 -17.8 °C -18.4 °C 34130.9 hPa NNE 8.2 km/h 9 km/h 92% 0 mm WeatherDisplay:10.37 W/m2 FEW
05:15 -17.9 °C -18.5 °C 34130.9 hPa South 6 km/h 20.9 km/h 92% 0 mm WeatherDisplay:10.37 W/m2 FEW
05:20 -17.9 °C -18.6 °C 34130.9 hPa ESE 10.9 km/h 23.8 km/h 92% 0 mm WeatherDisplay:10.37 W/m2 FEW
05:25 -17.9 °C -18.6 °C 34130.9 hPa SSE 10.9 km/h 29.8 km/h 92% 0 mm WeatherDisplay:10.37 W/m2 FEW
05:30 -17.9 °C -18.6 °C 34120.7 hPa East 7.6 km/h 20.9 km/h 92% 0 mm WeatherDisplay:10.37 W/m2 FEW
05:35 -18 °C -18.7 °C 34120.7 hPa South 1.8 km/h 12.9 km/h 92% 0 mm WeatherDisplay:10.37 W/m2 FEW
05:40 -18 °C -18.7 °C 34120.7 hPa NNE 7.2 km/h 11.9 km/h 92% 0 mm WeatherDisplay:10.37 W/m2 FEW
05:45 -18 °C -18.7 °C 34120.7 hPa East 6.3 km/h 11.9 km/h 92% 0 mm WeatherDisplay:10.37 W/m2 FEW
05:50 -18 °C -18.7 °C 34120.7 hPa SSE 8.5 km/h   92% 0 mm WeatherDisplay:10.37 W/m2 FEW
05:55 -18 °C -18.7 °C 34120.7 hPa SE 8.5 km/h 20.9 km/h 92% 0 mm WeatherDisplay:10.37 W/m2 FEW
06:00 -18 °C -18.7 °C 34120.7 hPa WNW 10.6 km/h 20.9 km/h 92% 0 mm WeatherDisplay:10.37 W/m2 FEW
06:05 -18 °C -18.7 °C 34107.2 hPa SSW 7.7 km/h 11.9 km/h 92% 0 mm WeatherDisplay:10.37 W/m2 FEW
06:10 -18 °C -18.7 °C 34107.2 hPa SSE 12.7 km/h 18.2 km/h 92% 0 mm WeatherDisplay:10.37 W/m2 FEW
06:15 -18 °C -18.7 °C 34107.2 hPa WSW 9 km/h 11.9 km/h 92% 0 mm WeatherDisplay:10.37 W/m2 FEW
06:20 -18 °C -18.7 °C 34107.2 hPa NE 11.4 km/h 29.8 km/h 92% 0 mm WeatherDisplay:10.37 W/m2 FEW
06:25 -18 °C -18.7 °C 34107.2 hPa South 9.3 km/h 26.9 km/h 92% 0 mm WeatherDisplay:10.37 W/m2 FEW
06:30 -18.1 °C -18.7 °C 34107.2 hPa NNW 5 km/h 23.8 km/h 92% 0 mm WeatherDisplay:10.37 W/m2 FEW
06:35 -18.1 °C -18.7 °C 34097 hPa NE 7.2 km/h 17.9 km/h 92% 0 mm WeatherDisplay:10.37 W/m2 FEW
06:40 -18.1 °C -18.7 °C 34097 hPa SSW 10.6 km/h 26.9 km/h 92% 0 mm WeatherDisplay:10.37 W/m2 FEW
06:45 -18 °C -18.7 °C 34097 hPa NE 8.2 km/h 20.9 km/h 92% 0 mm WeatherDisplay:10.37 W/m2 FEW
06:50 -18 °C -18.7 °C 34086.9 hPa SSE 9.7 km/h 15.6 km/h 92% 0 mm WeatherDisplay:10.37 W/m2 FEW
06:55 -18 °C -18.7 °C 34086.9 hPa ESE 5.1 km/h 35.7 km/h 92% 0 mm WeatherDisplay:10.37 W/m2 FEW
07:00 -18 °C -18.7 °C 34086.9 hPa SSE 5.6 km/h 23.8 km/h 92% 0 mm WeatherDisplay:10.37 W/m2 FEW
07:05 -18 °C -18.7 °C 34086.9 hPa SSE 7.2 km/h 20.9 km/h 92% 0 mm WeatherDisplay:10.37 W/m2 FEW
07:10 -18 °C -18.7 °C 34086.9 hPa ESE 3.9 km/h 11.9 km/h 92% 0 mm WeatherDisplay:10.37 W/m2 FEW
07:15 -18 °C -18.7 °C 34086.9 hPa SW 12.2 km/h 17.9 km/h 92% 0 mm WeatherDisplay:10.37 W/m2 FEW
07:20 -18 °C -18.7 °C 34086.9 hPa SSW 0.5 km/h 29.8 km/h 92% 0 mm WeatherDisplay:10.37 W/m2 FEW
07:25 -18 °C -18.7 °C 34073.3 hPa SSE 5.5 km/h 9 km/h 92% 0 mm WeatherDisplay:10.37 W/m2 FEW
07:30 -18 °C -18.7 °C 34073.3 hPa West 1.8 km/h 9 km/h 92% 0 mm WeatherDisplay:10.37 W/m2 FEW
07:35 -18 °C -18.7 °C 34073.3 hPa South 9.7 km/h 20.8 km/h 92% 0 mm WeatherDisplay:10.37 W/m2 FEW
07:40 -18 °C -18.7 °C 34073.3 hPa South 7.2 km/h 17.9 km/h 92% 0 mm WeatherDisplay:10.37 W/m2 FEW
07:45 -18 °C -18.7 °C 34073.3 hPa West 4.7 km/h 23.8 km/h 92% 0 mm WeatherDisplay:10.37 W/m2 FEW
07:50 -17.9 °C -18.6 °C 34073.3 hPa SSW 7.2 km/h 17.9 km/h 92% 0 mm WeatherDisplay:10.37 W/m2 FEW
07:55 -17.9 °C -18.6 °C 34063.2 hPa NNE 5.5 km/h 15 km/h 92% 0 mm WeatherDisplay:10.37 W/m2 FEW
08:00 -17.9 °C -18.6 °C 34063.2 hPa South 5 km/h 9 km/h 92% 0 mm WeatherDisplay:10.37 W/m2 FEW
08:05 -17.9 °C -18.6 °C 34063.2 hPa SW 8.5 km/h 29.8 km/h 92% 0 mm WeatherDisplay:10.37 W/m2 FEW
08:10 -17.9 °C -18.6 °C 34049.6 hPa NNE 15.6 km/h 50.7 km/h 92% 0 mm WeatherDisplay:10.37 W/m2 FEW
08:15 -17.9 °C -18.6 °C 34049.6 hPa South 10.3 km/h 26.9 km/h 92% 0 mm WeatherDisplay:10.37 W/m2 FEW
08:20 -17.9 °C -18.6 °C 34049.6 hPa South 16.3 km/h 23.8 km/h 92% 0 mm WeatherDisplay:10.37 W/m2 FEW
08:25 -17.9 °C -18.5 °C 34049.6 hPa SE 10.6 km/h 23.8 km/h 92% 0 mm WeatherDisplay:10.37 W/m2 FEW
08:30 -17.9 °C -18.5 °C 34039.5 hPa East 5.1 km/h 9 km/h 92% 0 mm WeatherDisplay:10.37 W/m2 FEW
08:35 -17.9 °C -18.5 °C 34039.5 hPa SSW 9 km/h 23.8 km/h 92% 0 mm WeatherDisplay:10.37 W/m2 FEW
08:40 -17.9 °C -18.5 °C 34039.5 hPa East 2.9 km/h 18.2 km/h 92% 0 mm WeatherDisplay:10.37 W/m2 FEW
08:45 -17.9 °C -18.5 °C 34039.5 hPa West 4.2 km/h 9 km/h 92% 0 mm WeatherDisplay:10.37 W/m2 FEW
08:50 -17.8 °C -18.5 °C 34039.5 hPa SSW 8.2 km/h 20.9 km/h 92% 0 mm WeatherDisplay:10.37 W/m2 FEW
08:55 -17.8 °C -18.5 °C 34039.5 hPa ESE 5 km/h 41.7 km/h 92% 0 mm WeatherDisplay:10.37 W/m2 FEW
09:00 -17.8 °C -18.5 °C 34039.5 hPa WNW 2.1 km/h 23.8 km/h 92% 0 mm WeatherDisplay:10.37 W/m2 FEW
09:06 -17.8 °C -18.5 °C 34029.3 hPa SSE 12.2 km/h 29.8 km/h 92% 0 mm WeatherDisplay:10.37 W/m2 FEW
09:11 -17.8 °C -18.5 °C 34029.3 hPa SSW 2.9 km/h 10.3 km/h 92% 0 mm WeatherDisplay:10.37 W/m2 FEW
09:16 -17.8 °C -18.5 °C 34029.3 hPa ESE 1.3 km/h 6 km/h 92% 0 mm WeatherDisplay:10.37 W/m2 FEW
09:21 -17.8 °C -18.4 °C 34029.3 hPa SSW 7.7 km/h 9 km/h 92% 0 mm WeatherDisplay:10.37 W/m2 FEW
09:26 -17.8 °C -18.4 °C 34029.3 hPa SE 11.9 km/h 25.9 km/h 92% 0 mm WeatherDisplay:10.37 W/m2 FEW
09:31 -17.8 °C -18.4 °C 34029.3 hPa East 3.1 km/h 9 km/h 92% 0 mm WeatherDisplay:10.37 W/m2 FEW
09:36 -17.8 °C -18.4 °C 34029.3 hPa ENE 15.8 km/h 29.8 km/h 92% 0 mm WeatherDisplay:10.37 W/m2 FEW
09:41 -17.8 °C -18.4 °C 34029.3 hPa South 2.9 km/h 9 km/h 92% 0 mm WeatherDisplay:10.37 W/m2 FEW
09:46 -17.8 °C -18.5 °C 34029.3 hPa SSE 10.9 km/h 17.9 km/h 92% 0 mm WeatherDisplay:10.37 W/m2 FEW
09:51 -17.8 °C -18.5 °C 34029.3 hPa ENE 5.6 km/h 9 km/h 92% 0 mm WeatherDisplay:10.37 W/m2 FEW
09:56 -17.8 °C -18.5 °C 34015.8 hPa South 0.8 km/h 5.1 km/h 92% 0 mm WeatherDisplay:10.37 W/m2 FEW
10:01 -17.8 °C -18.5 °C 34015.8 hPa WSW 4.7 km/h 18.2 km/h 92% 0 mm WeatherDisplay:10.37 W/m2 FEW
10:06 -17.8 °C -18.5 °C 34015.8 hPa South 6.9 km/h 20.9 km/h 92% 0 mm WeatherDisplay:10.37 W/m2 FEW
10:11 -17.8 °C -18.4 °C 34015.8 hPa SSW 6.3 km/h 17.9 km/h 92% 0 mm WeatherDisplay:10.37 W/m2 FEW
10:16 -17.8 °C -18.4 °C 34015.8 hPa SE 7.6 km/h 26.9 km/h 92% 0 mm WeatherDisplay:10.37 W/m2 FEW
10:21 -17.8 °C -18.4 °C 34015.8 hPa North 11.6 km/h 20.9 km/h 92% 0 mm WeatherDisplay:10.37 W/m2 FEW
10:26 -17.8 °C -18.6 °C 34015.8 hPa SE 9.8 km/h 12.9 km/h 91% 0 mm WeatherDisplay:10.37 W/m2 FEW
10:31 -17.9 °C -18.6 °C 34015.8 hPa SW 5.5 km/h 41.7 km/h 91% 0 mm WeatherDisplay:10.37 W/m2 FEW
10:36 -17.9 °C -18.6 °C 34015.8 hPa WNW 17.4 km/h 50.7 km/h 91% 0 mm WeatherDisplay:10.37 W/m2 FEW
10:41 -17.9 °C -18.6 °C 34015.8 hPa SSE 10.1 km/h 17.9 km/h 91% 0 mm WeatherDisplay:10.37 W/m2 FEW
10:46 -17.9 °C -18.6 °C 34015.8 hPa South 7.6 km/h 15.6 km/h 91% 0 mm WeatherDisplay:10.37 W/m2 FEW
10:51 -17.9 °C -18.7 °C 34015.8 hPa SSE 11.6 km/h 23.8 km/h 91% 0 mm WeatherDisplay:10.37 W/m2 FEW
10:56 -17.9 °C -18.7 °C 34015.8 hPa SSE 6.3 km/h 23.3 km/h 91% 0 mm WeatherDisplay:10.37 W/m2 FEW
11:01 -17.9 °C -18.7 °C 34005.6 hPa SE 9 km/h 18.2 km/h 91% 0 mm WeatherDisplay:10.37 W/m2 FEW
11:06 -18 °C -18.7 °C 34005.6 hPa SSE 6 km/h 11.9 km/h 91% 0 mm WeatherDisplay:10.37 W/m2 FEW
11:11 -18.1 °C -18.8 °C 34005.6 hPa SSW 16.3 km/h 32.8 km/h 90% 0 mm WeatherDisplay:10.37 W/m2 FEW
11:16 -18.1 °C -18.9 °C 34005.6 hPa NE 4.2 km/h 44.7 km/h 90% 0 mm WeatherDisplay:10.37 W/m2 FEW
11:21 -18.1 °C -18.9 °C 34005.6 hPa SSE 5.5 km/h 12.9 km/h 90% 0 mm WeatherDisplay:10.37 W/m2 FEW
11:26 -18.1 °C -18.9 °C 33992.1 hPa SE 13.5 km/h 26.9 km/h 90% 0 mm WeatherDisplay:10.37 W/m2 FEW
11:31 -18.2 °C -18.8 °C 33992.1 hPa ENE 6.9 km/h 23.8 km/h 91% 0 mm WeatherDisplay:10.37 W/m2 FEW
11:36 -18.2 °C -18.8 °C 33981.9 hPa South 20.9 km/h 41.7 km/h 91% 0 mm WeatherDisplay:10.37 W/m2 FEW
11:41 -18.2 °C -18.8 °C 33981.9 hPa South 8.2 km/h 46.7 km/h 91% 0 mm WeatherDisplay:10.37 W/m2 FEW
11:46 -18.2 °C -18.8 °C 33981.9 hPa South 9 km/h 41.7 km/h 91% 0 mm WeatherDisplay:10.37 W/m2 FEW
11:51 -18.2 °C -18.8 °C 33981.9 hPa SSW 14.8 km/h 20.9 km/h 91% 0 mm WeatherDisplay:10.37 W/m2 FEW
11:56 -18.2 °C -18.8 °C 33981.9 hPa SSE 12.7 km/h 35.7 km/h 91% 0 mm WeatherDisplay:10.37 W/m2 FEW
12:01 -18.1 °C -18.9 °C 33971.7 hPa SW 12.7 km/h 20.9 km/h 90% 0 mm WeatherDisplay:10.37 W/m2 FEW
12:06 -18.1 °C -18.9 °C 33971.7 hPa SSE 10.3 km/h 29.8 km/h 90% 0 mm WeatherDisplay:10.37 W/m2 FEW
12:11 -18.1 °C -18.9 °C 33971.7 hPa SSE 13.5 km/h 46.7 km/h 90% 0 mm WeatherDisplay:10.37 W/m2 FEW
12:16 -18.1 °C -18.9 °C 33971.7 hPa North 5.5 km/h 29.8 km/h 90% 0 mm WeatherDisplay:10.37 W/m2 FEW
12:21 -18.1 °C -18.8 °C 33958.2 hPa ENE 12.9 km/h 15 km/h 90% 0 mm WeatherDisplay:10.37 W/m2 FEW
12:26 -18.1 °C -18.9 °C 33958.2 hPa North 9.7 km/h 23.8 km/h 90% 0 mm WeatherDisplay:10.37 W/m2 FEW
12:31 -18.1 °C -18.9 °C 33958.2 hPa SSW 5 km/h 17.9 km/h 90% 0 mm WeatherDisplay:10.37 W/m2 FEW
12:36 -18.1 °C -18.9 °C 33958.2 hPa SE 6 km/h 47.6 km/h 90% 0 mm WeatherDisplay:10.37 W/m2 FEW
12:41 -18.2 °C -18.9 °C 33948 hPa South 10.9 km/h 17.9 km/h 90% 0 mm WeatherDisplay:10.37 W/m2 FEW
12:46 -18.2 °C -18.9 °C 33948 hPa SSE 9 km/h 28.5 km/h 90% 0 mm WeatherDisplay:10.37 W/m2 FEW
12:51 -18.2 °C -19 °C 33948 hPa SE 5.1 km/h 17.9 km/h 90% 0 mm WeatherDisplay:10.37 W/m2 FEW
12:56 -18.2 °C -19 °C 33948 hPa SSE 5.5 km/h 20.9 km/h 90% 0 mm WeatherDisplay:10.37 W/m2 FEW
13:01 -18.2 °C -19 °C 33937.9 hPa SE 4.2 km/h 26.9 km/h 90% 0 mm WeatherDisplay:10.37 W/m2 FEW
13:06 -18.2 °C -19 °C 33937.9 hPa South 5.6 km/h 7.7 km/h 90% 0 mm WeatherDisplay:10.37 W/m2 FEW
13:11 -18.2 °C -19 °C 33937.9 hPa East 6.3 km/h 7.7 km/h 90% 0 mm WeatherDisplay:10.37 W/m2 FEW
13:16 -18.2 °C -19 °C 33937.9 hPa SSE 5.5 km/h 10.3 km/h 90% 0 mm WeatherDisplay:10.37 W/m2 FEW
13:21 -18.2 °C -19 °C 33937.9 hPa SE 14.8 km/h 23.3 km/h 90% 0 mm WeatherDisplay:10.37 W/m2 FEW
13:26 -18.2 °C -19.1 °C 33924.3 hPa South 12.9 km/h 25.9 km/h 90% 0 mm WeatherDisplay:10.37 W/m2 FEW
13:32 -18.3 °C -19.1 °C 33924.3 hPa South 12.7 km/h 29.8 km/h 90% 0 mm WeatherDisplay:10.37 W/m2 FEW
13:37 -18.3 °C -19.1 °C 33924.3 hPa SSE 10.1 km/h 20.9 km/h 90% 0 mm WeatherDisplay:10.37 W/m2 FEW
13:42 -18.3 °C -19.1 °C 33914.2 hPa South 14.8 km/h 53.6 km/h 90% 0 mm WeatherDisplay:10.37 W/m2 FEW
13:47 -18.3 °C -19.1 °C 33924.3 hPa SSE 5.6 km/h 11.9 km/h 90% 0 mm WeatherDisplay:10.37 W/m2 FEW
13:52 -18.4 °C -19.2 °C 33914.2 hPa NNW 12.9 km/h 44.7 km/h 90% 0 mm WeatherDisplay:10.37 W/m2 FEW
13:57 -18.4 °C -19.2 °C 33914.2 hPa SE 5.1 km/h 15 km/h 90% 0 mm WeatherDisplay:10.37 W/m2 FEW
14:02 -18.4 °C -19.3 °C 33914.2 hPa ESE 13.5 km/h 20.9 km/h 90% 0 mm WeatherDisplay:10.37 W/m2 FEW
14:07 -18.5 °C -19.3 °C 33914.2 hPa SSE 12.7 km/h 32.8 km/h 90% 0 mm WeatherDisplay:10.37 W/m2 FEW
14:12 -18.6 °C -19.4 °C 33914.2 hPa South 9 km/h 11.9 km/h 90% 0 mm WeatherDisplay:10.37 W/m2 FEW
14:17 -18.7 °C -19.4 °C 33914.2 hPa SE 13.2 km/h 35.7 km/h 90% 0 mm WeatherDisplay:10.37 W/m2 FEW
14:22 -18.7 °C -19.5 °C 33914.2 hPa SSE 9.3 km/h 20.8 km/h 90% 0 mm WeatherDisplay:10.37 W/m2 FEW
14:27 -18.8 °C -19.6 °C 33900.6 hPa SSE 7.7 km/h 17.9 km/h 90% 0 mm WeatherDisplay:10.37 W/m2 FEW
14:32 -18.8 °C -19.6 °C 33900.6 hPa South 12.7 km/h 35.7 km/h 90% 0 mm WeatherDisplay:10.37 W/m2 FEW
14:37 -18.8 °C -19.6 °C 33900.6 hPa SSE 4.3 km/h 20.8 km/h 90% 0 mm WeatherDisplay:10.37 W/m2 FEW
14:42 -18.8 °C -19.7 °C 33900.6 hPa West 16.3 km/h 29.8 km/h 90% 0 mm WeatherDisplay:10.37 W/m2 FEW
14:47 -18.9 °C -19.7 °C 33900.6 hPa SE 8.2 km/h 23.8 km/h 90% 0 mm WeatherDisplay:10.37 W/m2 FEW
14:52 -18.9 °C -19.8 °C 33900.6 hPa SSE 10.9 km/h 35.7 km/h 90% 0 mm WeatherDisplay:10.37 W/m2 FEW
14:57 -19 °C -19.9 °C 33900.6 hPa WSW 13.2 km/h 35.7 km/h 89% 0 mm WeatherDisplay:10.37 W/m2 FEW
15:02 -19 °C -19.9 °C 33900.6 hPa ESE 15.6 km/h 41.7 km/h 89% 0 mm WeatherDisplay:10.37 W/m2 FEW
15:07 -19 °C -19.9 °C 33900.6 hPa South 9.3 km/h 41.7 km/h 89% 0 mm WeatherDisplay:10.37 W/m2 FEW
15:12 -19.1 °C -19.9 °C 33900.6 hPa Calm   9 km/h 89% 0 mm WeatherDisplay:10.37 W/m2 FEW
15:17 -19.1 °C -20 °C 33890.5 hPa South 6.8 km/h 20.9 km/h 88% 0 mm WeatherDisplay:10.37 W/m2 FEW
15:22 -19.1 °C -20 °C 33890.5 hPa SSE 7.6 km/h 23.8 km/h 88% 0 mm WeatherDisplay:10.37 W/m2 FEW
15:27 -19.1 °C -20.1 °C 33890.5 hPa ESE 18.2 km/h 68.6 km/h 87% 0 mm WeatherDisplay:10.37 W/m2 FEW
15:32 -19.1 °C -20.1 °C 33890.5 hPa ESE 5.1 km/h 9 km/h 87% 0 mm WeatherDisplay:10.37 W/m2 FEW
15:37 -19.1 °C -20.1 °C 33890.5 hPa SSW 10.1 km/h 25.9 km/h 87% 0 mm WeatherDisplay:10.37 W/m2 FEW
15:42 -19 °C -20.1 °C 33890.5 hPa SSE 4.2 km/h 18.2 km/h 87% 0 mm WeatherDisplay:10.37 W/m2 FEW
15:47 -19 °C -20.1 °C 33880.3 hPa South 3.9 km/h 9 km/h 87% 0 mm WeatherDisplay:10.37 W/m2 FEW
15:52 -19 °C -20.1 °C 33880.3 hPa South 0.5 km/h 10.3 km/h 87% 0 mm WeatherDisplay:10.37 W/m2 FEW
15:57 -19 °C -20.1 °C 33880.3 hPa SSW 18.8 km/h 35.7 km/h 87% 0 mm WeatherDisplay:10.37 W/m2 FEW
16:02 -19 °C -20.1 °C 33880.3 hPa SSW 8.9 km/h 38.8 km/h 87% 0 mm WeatherDisplay:10.37 W/m2 FEW
16:07 -19 °C -20.1 °C 33866.8 hPa SE 4.2 km/h 15 km/h 87% 0 mm WeatherDisplay:10.37 W/m2 FEW
16:12 -19 °C -20.1 °C 33866.8 hPa ENE 5.1 km/h 18.2 km/h 86% 0 mm WeatherDisplay:10.37 W/m2 FEW
16:17 -19 °C -20.1 °C 33866.8 hPa ESE 11.9 km/h 17.9 km/h 86% 0 mm WeatherDisplay:10.37 W/m2 FEW
16:22 -19 °C -20.1 °C 33866.8 hPa SE 2.1 km/h 20.9 km/h 86% 0 mm WeatherDisplay:10.37 W/m2 FEW
16:27 -19 °C -20.1 °C 33866.8 hPa SSE 5.5 km/h 26.9 km/h 86% 0 mm WeatherDisplay:10.37 W/m2 FEW
16:32 -19.1 °C -20.2 °C 33856.6 hPa SSW 8.9 km/h 12.9 km/h 85% 0 mm WeatherDisplay:10.37 W/m2 FEW
16:37 -19.1 °C -20.4 °C 33843.1 hPa SSW 7.7 km/h 15 km/h 84% 0 mm WeatherDisplay:10.37 W/m2 FEW
16:42 -19.1 °C -20.4 °C 33843.1 hPa SSW 12.2 km/h 17.9 km/h 84% 0 mm WeatherDisplay:10.37 W/m2 FEW
16:48 -19.1 °C -20.3 °C 33843.1 hPa South 0.8 km/h 6 km/h 85% 0 mm WeatherDisplay:10.37 W/m2 FEW
16:53 -19.1 °C -20.3 °C 33832.9 hPa South 8 km/h 10.3 km/h 85% 0 mm WeatherDisplay:10.37 W/m2 FEW
16:58 -19.2 °C -20.4 °C 33832.9 hPa SSE 8 km/h 23.3 km/h 84% 0 mm WeatherDisplay:10.37 W/m2 FEW
17:03 -19.2 °C -20.5 °C 33832.9 hPa SSW 0.5 km/h 9 km/h 84% 0 mm WeatherDisplay:10.37 W/m2 FEW
17:08 -19.2 °C -19.9 °C 33832.9 hPa SSE 3.4 km/h 15.6 km/h 91% 0 mm WeatherDisplay:10.37 W/m2 FEW
17:13 -19.3 °C -20.6 °C 33822.8 hPa South 7.6 km/h 17.9 km/h 84% 0 mm WeatherDisplay:10.37 W/m2 FEW
17:18 -19.3 °C -20.5 °C 33822.8 hPa SSW 10.1 km/h 29.8 km/h 85% 0 mm WeatherDisplay:10.37 W/m2 FEW
17:23 -19.3 °C -20.5 °C 33822.8 hPa SE 6.9 km/h 9 km/h 85% 0 mm WeatherDisplay:10.37 W/m2 FEW
17:28 -19.3 °C -20.6 °C 33809.2 hPa South 11.9 km/h 23.8 km/h 85% 0 mm WeatherDisplay:10.37 W/m2 FEW
17:33 -19.4 °C -20.7 °C 33809.2 hPa SE 7.2 km/h 11.9 km/h 84% 0 mm WeatherDisplay:10.37 W/m2 FEW
17:38 -19.4 °C -20.7 °C 33809.2 hPa South 8.5 km/h 11.9 km/h 84% 0 mm WeatherDisplay:10.37 W/m2 FEW
17:43 -19.5 °C -20.8 °C 33809.2 hPa SE 2.1 km/h 9 km/h 84% 0 mm WeatherDisplay:10.37 W/m2 FEW
17:48 -19.5 °C -20.8 °C 33799.1 hPa South 7.6 km/h 20.9 km/h 84% 0 mm WeatherDisplay:10.37 W/m2 FEW
17:53 -19.6 °C -20.8 °C 33799.1 hPa SSE 4.3 km/h 11.9 km/h 84% 0 mm WeatherDisplay:10.37 W/m2 FEW
17:58 -19.6 °C -20.8 °C 33788.9 hPa SE 2.9 km/h 26.9 km/h 84% 0 mm WeatherDisplay:10.37 W/m2 FEW
18:03 -19.6 °C -20.8 °C 33788.9 hPa SSW 4.2 km/h 9 km/h 85% 0 mm WeatherDisplay:10.37 W/m2 FEW
18:04 -19.6 °C -20.8 °C 33788.9 hPa South 11.6 km/h 23.8 km/h 85% 0 mm WeatherDisplay:10.37 W/m2 FEW
18:09 -19.6 °C -20.9 °C 33788.9 hPa South 6.8 km/h 9 km/h 84% 0 mm WeatherDisplay:10.37 W/m2 FEW
18:14 -19.6 °C -20.9 °C 33775.4 hPa SSE 7.6 km/h 11.9 km/h 84% 0 mm WeatherDisplay:10.37 W/m2 FEW
18:19 -19.7 °C -20.9 °C 33775.4 hPa SSW 8.5 km/h 9 km/h 84% 0 mm WeatherDisplay:10.37 W/m2 FEW
18:24 -19.7 °C -20.9 °C 33775.4 hPa SSW 11.1 km/h 20.9 km/h 84% 0 mm WeatherDisplay:10.37 W/m2 FEW
18:29 -19.6 °C -20.9 °C 33765.2 hPa South 1.8 km/h 11.9 km/h 84% 0 mm WeatherDisplay:10.37 W/m2 FEW
18:34 -19.7 °C -20.4 °C 33765.2 hPa SW 6.8 km/h 23.8 km/h 91% 0 mm WeatherDisplay:10.37 W/m2 FEW
18:39 -19.7 °C -21 °C 33751.6 hPa SE 7.7 km/h 15 km/h 84% 0 mm WeatherDisplay:10.37 W/m2 FEW
18:44 -19.7 °C -21 °C 33751.6 hPa SSE 12.7 km/h 23.8 km/h 84% 0 mm WeatherDisplay:10.37 W/m2 FEW
18:49 -19.7 °C -21 °C 33741.5 hPa SSE 8.5 km/h 11.9 km/h 84% 0 mm WeatherDisplay:10.37 W/m2 FEW
18:54 -19.7 °C -21.1 °C 33741.5 hPa ENE 5.6 km/h 26.9 km/h 83% 0 mm WeatherDisplay:10.37 W/m2 FEW
18:59 -19.7 °C -21.1 °C 33741.5 hPa South 3.7 km/h 38.8 km/h 83% 0 mm WeatherDisplay:10.37 W/m2 FEW
19:04 -19.7 °C -21 °C 33731.3 hPa SSW 16.6 km/h 17.9 km/h 84% 0 mm WeatherDisplay:10.37 W/m2 FEW
19:09 -19.7 °C -21 °C 33731.3 hPa SE 16.6 km/h 23.8 km/h 84% 0 mm WeatherDisplay:10.37 W/m2 FEW
19:14 -19.7 °C -21 °C 33731.3 hPa East 5.5 km/h 11.9 km/h 84% 0 mm WeatherDisplay:10.37 W/m2 FEW
19:19 -19.7 °C -21 °C 33717.8 hPa SSE 5.6 km/h 15 km/h 84% 0 mm WeatherDisplay:10.37 W/m2 FEW
19:24 -19.7 °C -21 °C 33717.8 hPa SSE 6 km/h 9 km/h 84% 0 mm WeatherDisplay:10.37 W/m2 FEW
19:30 -19.7 °C -21 °C 33717.8 hPa WSW 16.1 km/h 29.8 km/h 84% 0 mm WeatherDisplay:10.37 W/m2 FEW
19:35 -19.7 °C -20.9 °C 33707.6 hPa South 12.9 km/h 12.9 km/h 85% 0 mm WeatherDisplay:10.37 W/m2 FEW
19:40 -19.7 °C -20.9 °C 33707.6 hPa SE 7.6 km/h 15.6 km/h 85% 0 mm WeatherDisplay:10.37 W/m2 FEW
19:45 -19.7 °C -20.9 °C 33707.6 hPa SE 10.3 km/h 32.8 km/h 85% 0 mm WeatherDisplay:10.37 W/m2 FEW
19:50 -19.7 °C -20.9 °C 33707.6 hPa SSW 13.2 km/h 29.8 km/h 85% 0 mm WeatherDisplay:10.37 W/m2 FEW
19:55 -19.8 °C -21.1 °C 33707.6 hPa SE 9 km/h 26.9 km/h 84% 0 mm WeatherDisplay:10.37 W/m2 FEW
20:00 -19.8 °C -21.1 °C 33694.1 hPa South 11.6 km/h 26.9 km/h 84% 0 mm WeatherDisplay:10.37 W/m2 FEW
20:05 -19.8 °C -21.1 °C 33694.1 hPa South 16.1 km/h 35.7 km/h 84% 0 mm WeatherDisplay:10.37 W/m2 FEW
20:10 -19.9 °C -21.2 °C 33694.1 hPa SSE 24.3 km/h 50.7 km/h 83% 0 mm WeatherDisplay:10.37 W/m2 FEW
20:15 -19.9 °C -21.3 °C 33694.1 hPa East 9.3 km/h 29.8 km/h 83% 0 mm WeatherDisplay:10.37 W/m2 FEW
20:20 -19.9 °C -21.3 °C 33694.1 hPa SSE 6.3 km/h 15 km/h 83% 0 mm WeatherDisplay:10.37 W/m2 FEW
20:25 -20.1 °C -21.5 °C 33683.9 hPa WSW 12.9 km/h 29.8 km/h 82% 0 mm WeatherDisplay:10.37 W/m2 FEW
20:30 -20.1 °C -21.5 °C 33683.9 hPa SSE 11.4 km/h 29.8 km/h 82% 0 mm WeatherDisplay:10.37 W/m2 FEW
20:35 -20.1 °C -21.6 °C 33683.9 hPa SSE 4.2 km/h 11.9 km/h 82% 0 mm WeatherDisplay:10.37 W/m2 FEW
20:40 -20.1 °C -21.7 °C 33683.9 hPa SSE 10.6 km/h 38.8 km/h 81% 0 mm WeatherDisplay:10.37 W/m2 FEW
20:45 -20.2 °C -21.7 °C 33683.9 hPa ESE 11.4 km/h 32.8 km/h 81% 0 mm WeatherDisplay:10.37 W/m2 FEW
20:50 -20.2 °C -21.8 °C 33683.9 hPa South 12.4 km/h 41.7 km/h 80% 0 mm WeatherDisplay:10.37 W/m2 FEW
20:55 -20.2 °C -21.7 °C 33683.9 hPa SE 16.1 km/h 33.6 km/h 81% 0 mm WeatherDisplay:10.37 W/m2 FEW
21:00 -20.2 °C -21.8 °C 33683.9 hPa South 16.6 km/h 33.6 km/h 80% 0 mm WeatherDisplay:10.37 W/m2 FEW
21:05 -20.2 °C -21.8 °C 33683.9 hPa South 9.8 km/h 38.8 km/h 80% 0 mm WeatherDisplay:10.37 W/m2 FEW
21:10 -20.2 °C -21.8 °C 33683.9 hPa SSE 2.9 km/h 15 km/h 80% 0 mm WeatherDisplay:10.37 W/m2 FEW
21:15 -20.2 °C -21.9 °C 33683.9 hPa SE 6.8 km/h 20.9 km/h 80% 0 mm WeatherDisplay:10.37 W/m2 FEW
21:20 -20.2 °C -22 °C 33683.9 hPa South 11.9 km/h 32.8 km/h 79% 0 mm WeatherDisplay:10.37 W/m2 FEW
21:25 -20.2 °C -21.9 °C 33683.9 hPa ESE 8.5 km/h 15.6 km/h 79% 0 mm WeatherDisplay:10.37 W/m2 FEW
21:30 -20.2 °C -22 °C 33683.9 hPa ESE 9 km/h 17.9 km/h 79% 0 mm WeatherDisplay:10.37 W/m2 FEW
21:35 -20.3 °C -22 °C 33683.9 hPa SW 5 km/h 20.8 km/h 79% 0 mm WeatherDisplay:10.37 W/m2 FEW
21:40 -20.3 °C -22 °C 33673.8 hPa SSE 11.6 km/h 23.8 km/h 79% 0 mm WeatherDisplay:10.37 W/m2 FEW
21:45 -20.3 °C -22.1 °C 33673.8 hPa SE 12.9 km/h 29.8 km/h 78% 0 mm WeatherDisplay:10.37 W/m2 FEW
21:50 -20.2 °C -22.1 °C 33673.8 hPa ESE 10.6 km/h 26.9 km/h 78% 0 mm WeatherDisplay:10.37 W/m2 FEW
21:55 -20.2 °C -22.2 °C 33673.8 hPa SE 9 km/h 26.9 km/h 77% 0 mm WeatherDisplay:10.37 W/m2 FEW
22:00 -20.3 °C -22.1 °C 33673.8 hPa Calm     78% 0 mm WeatherDisplay:10.37 W/m2 FEW
22:05 -20.3 °C -22.2 °C 33673.8 hPa SE 6.3 km/h 15 km/h 77% 0 mm WeatherDisplay:10.37 W/m2 FEW
22:10 -20.3 °C -22.2 °C 33673.8 hPa SE 6.9 km/h 20.9 km/h 77% 0 mm WeatherDisplay:10.37 W/m2 FEW
22:15 -20.3 °C -22.2 °C 33660.2 hPa South 4.3 km/h 9 km/h 77% 0 mm WeatherDisplay:10.37 W/m2 FEW
22:20 -20.2 °C -22.3 °C 33660.2 hPa SE 12.2 km/h 23.8 km/h 76% 0 mm WeatherDisplay:10.37 W/m2 FEW
22:25 -20.2 °C -22.1 °C 33660.2 hPa SE 9.7 km/h 20.8 km/h 77% 0 mm WeatherDisplay:10.37 W/m2 FEW
22:30 -20.2 °C -22.2 °C 33650.1 hPa SSE 9.7 km/h 26.9 km/h 76% 0 mm WeatherDisplay:10.37 W/m2 FEW
22:35 -20.2 °C -22.2 °C 33650.1 hPa SSE 8.5 km/h 20.9 km/h 76% 0 mm WeatherDisplay:10.37 W/m2 FEW
22:40 -20.2 °C -22.3 °C 33650.1 hPa SSW 12.7 km/h 35.7 km/h 75% 0 mm WeatherDisplay:10.37 W/m2 FEW
22:45 -20.2 °C -22.3 °C 33650.1 hPa ESE 6.3 km/h 20.9 km/h 75% 0 mm WeatherDisplay:10.37 W/m2 FEW
22:50 -20.1 °C -22.2 °C 33650.1 hPa ESE 1.6 km/h 17.9 km/h 75% 0 mm WeatherDisplay:10.37 W/m2 FEW
22:55 -20.1 °C -22.2 °C 33650.1 hPa South 6.3 km/h 15 km/h 75% 0 mm WeatherDisplay:10.37 W/m2 FEW
23:00 -20.1 °C -22.2 °C 33639.9 hPa South 16.1 km/h 29.8 km/h 75% 0 mm WeatherDisplay:10.37 W/m2 FEW
23:05 -20.1 °C -22.3 °C 33639.9 hPa East 7.6 km/h 20.9 km/h 74% 0 mm WeatherDisplay:10.37 W/m2 FEW
23:10 -20.1 °C -22.3 °C 33626.4 hPa SE 17.4 km/h 35.7 km/h 74% 0 mm WeatherDisplay:10.37 W/m2 FEW
23:15 -20.1 °C -22.3 °C 33626.4 hPa SSE 15.6 km/h 32.8 km/h 74% 0 mm WeatherDisplay:10.37 W/m2 FEW
23:20 -20.1 °C -22.3 °C 33626.4 hPa SSW 11.4 km/h 26.9 km/h 74% 0 mm WeatherDisplay:10.37 W/m2 FEW
23:25 -20.1 °C -22.3 °C 33626.4 hPa SSE 14 km/h 29.8 km/h 74% 0 mm WeatherDisplay:10.37 W/m2 FEW
23:30 -20 °C -22.2 °C 33616.2 hPa SW 8.5 km/h 20.9 km/h 74% 0 mm WeatherDisplay:10.37 W/m2 FEW
23:35 -20 °C -22.2 °C 33616.2 hPa South 12.2 km/h 29.8 km/h 74% 0 mm WeatherDisplay:10.37 W/m2 FEW
23:40 -19.9 °C -22.2 °C 33602.7 hPa SSE 9.7 km/h 15.6 km/h 74% 0 mm WeatherDisplay:10.37 W/m2 FEW
23:45 -19.9 °C -22.3 °C 33602.7 hPa SE 9 km/h 20.9 km/h 73% 0 mm WeatherDisplay:10.37 W/m2 FEW
23:50 -19.9 °C -22.2 °C 33602.7 hPa SSE 11.9 km/h 26.9 km/h 74% 0 mm WeatherDisplay:10.37 W/m2 FEW
23:55 -19.9 °C -22.2 °C 33616.2 hPa SSE 6.4 km/h 20.9 km/h 74% 0 mm WeatherDisplay:10.37 W/m2 FEW
Tuulensuunkaari, Veikkola, Suomi
Compliments of Weather Underground - 2.75 mb